Home > Weather > Hampton > Past weeks

Flag for USA Past Weather in Hampton, Virginia, USA — Yesterday and Last 2 Weeks

Now
85 °F

Scattered clouds.


Feels Like: 95 °F
Forecast: 78 / 91 °F
Wind: 6 mph from Northeast

Location: Langley Air Force Base

Current Time: Jul 27, 2016 at 9:00:28 PM

Latest Report: Jul 27, 2016 at 7:58 PM


Visibility: 10 mi

Pressure: 29.92 "Hg

Humidity: 77%

Dew Point: 77 °F

Location of HamptonLocation

Past Weather in Hampton — Graph

°F

Hampton Temperature Yesterday

Maximum temperature yesterday: 92 °F (at 12:58 PM)
Minimum temperature yesterday: 80 °F (at 5:58 AM)
Average temperature yesterday: 85 °F

High & Low Weather Summary for the Past Weeks

 TemperatureHumidityPressure
High96 °F (Jul 24, 2:58 PM)99% (Jul 18, 6:58 AM)30.21 "Hg (Jul 18, 6:58 AM)
Low70 °F (Jul 20, 1:58 AM)48% (Jul 25, 3:58 PM)29.90 "Hg (Jul 27, 5:58 PM)
Average83 °F77%30.05 "Hg
* Reported Jul 12 7:58 PM — Jul 27 7:58 PM, Hampton, Weather by CustomWeather, © 2016

Note: Actual official high and low records may vary slightly from our data, if they occured in-between our weather recording intervals... More about our weather records

Advertising

Hampton Weather History for the Previous 24 Hours

Scroll right to see more
 ConditionsComfort  
Time TempWeatherWind HumidityBarometerVisibility
7:58 PM
Wed, Jul 27
85 °FScattered clouds.6 mph77%29.92 "Hg10 mi
6:58 PM87 °FSunny.7 mph73%29.92 "Hg10 mi
5:58 PM91 °FSunny.9 mph68%29.90 "Hg9 mi
4:58 PM92 °FPassing clouds.9 mph67%29.92 "Hg10 mi
3:58 PM93 °FScattered clouds.7 mph60%29.92 "Hg10 mi
2:58 PM91 °FScattered clouds.8 mph68%29.93 "Hg9 mi
1:58 PM90 °FScattered clouds.7 mph68%29.95 "Hg9 mi
12:58 PM90 °FSunny.7 mph65%29.96 "Hg9 mi
11:58 AM87 °FScattered clouds.7 mph70%29.97 "Hg9 mi
10:58 AM87 °FScattered clouds.5 mph72%29.97 "Hg10 mi
9:58 AM83 °FScattered clouds.1 mph78%29.97 "Hg9 mi
8:58 AM82 °FPassing clouds.3 mph83%29.97 "Hg9 mi
7:58 AM80 °FScattered clouds.1 mph91%29.97 "Hg8 mi
6:58 AM77 °FPassing clouds.3 mph96%29.96 "Hg10 mi
5:58 AM77 °FClear.1 mph95%29.95 "Hg10 mi
4:58 AM78 °FClear.3 mph94%29.93 "Hg10 mi
3:58 AM78 °FPassing clouds.5 mph93%29.94 "Hg10 mi
2:58 AM79 °FPassing clouds.3 mph88%29.96 "Hg10 mi
1:58 AM80 °FPassing clouds.7 mph83%29.95 "Hg10 mi
12:58 AM79 °FPassing clouds.3 mph86%29.96 "Hg10 mi
11:58 PM
Tue, Jul 26
80 °FClear.2 mph82%29.97 "Hg10 mi
10:58 PM81 °FPassing clouds.2 mph79%29.97 "Hg10 mi
9:58 PM81 °FClear.5 mph79%29.96 "Hg10 mi
9:03 PM81 °FSunny.3 mph84%29.94 "Hg9 mi
Weather by CustomWeather, © 2016

See weather overviewHow to use our weather pages